Regional Weather Roundup
Issued by NWS Pendleton, OR

Home | Current Version | Previous Version | Text Only | Print | Product List | Glossary On
Versions: 1 2 3 4 5 6 7 8 9 10 11 12 13 14 15 16 17 18 19 20 21 22 23 24 25 26 27 28 29 30 31 32 33 34 35 36 37 38 39 40 41 42 43 44 45 46 47 48 49 50
000
ASUS46 KPDT 101110
RWRPDT
PENDLETON REGIONAL WEATHER ROUNDUP
NATIONAL WEATHER SERVICE PENDLETON OREGON
400 AM PDT THU JUL 10 2014

NOTE: FAIR INDICATES FEW OR NO CLOUDS BELOW 12,000 FEET WITH NO
SIGNIFICANT WEATHER AND/OR OBSTRUCTIONS TO VISIBILITY.

# INDICATES UNOFFICIAL STATION AND DATA

WAZ520-101210-
EAST SLOPES OF WASHINGTON CASCADES

CITY            SKY/WX      TMP DP  RH  WIND    PRES   REMARKS
#BUMPING DAM    N/A         51  N/A N/A CALM    N/A
#CLE ELUM HS    N/A         62  46  56  SW7     29.84F
#CLE ELUM LAKE  N/A         59  37  44  N1      29.77S
#CLIFFDEL 2NW   N/A         55  45  69  N1      N/A
#EASTON DOT     N/A         58  48  69  N1      N/A
#ELK HTS DOT    N/A         64  64  100 CALM    N/A
#GLENWOOD       N/A         48  46  93  CALM    29.78S
#MANASTASH CYN  N/A         56  25  30  CALM    29.87S
#NELSON         N/A         62  50  65  CALM    29.80F
#NELSON 3SW     N/A         63  33  32  CALM    29.96F
#NILE           N/A         56  46  69  CALM    29.10S
#PEOH POINT     N/A         54  41  61  SW10    N/A
#RONALD 2NW     N/A         59  38  45  NW1     29.81F
#SOUTH BLEWITT  N/A         47  42  83  CALM    N/A
#TROUT LAKE 1NE N/A         53  48  83  CALM    29.77S
$$

WAZ521-101210-
SIMCOE HIGHLANDS

CITY            SKY/WX      TMP DP  RH  WIND    PRES   REMARKS
#BICKLETON HS   N/A         61  32  33  NW6     29.91S
#SATUS PASS DOT N/A         56  38  51  CALM    N/A
#CENTERVILLE 4W N/A         63  52  67  NW13    29.62F
#CENTERVILLE 1SWN/A         61  50  67  W10     29.74F
#GOLDENDALE 1NE N/A         59  51  75  CALM    N/A
#GOLDENDALE 1S  N/A         58  52  80  CALM    29.84S
#GOLDENDALE 5WNWN/A         59  52  78  W5      29.75S
#GOODNOE HILLS  N/A         64  51  63  NW5     29.78S
#LYLE 6NE       N/A         61  53  75  SW3     29.76S
$$

WAZ026-101210-
KITTITAS VALLEY

CITY            SKY/WX      TMP DP  RH  WIND    PRES   REMARKS
ELLENSBURG AP   CLEAR       65  44  46  NW21G29 29.84R
#ELLENSBURG 3NE N/A         63  47  56  N9G25   29.84F
#ELLENSBURG 1E  N/A         64  41  43  NW1     N/A
#KITTITAS 3S    N/A         60  46  60  CALM    29.74S
#RYEGRASS DOT   N/A         61  47  60  W22G29  N/A
#THORP 6N       N/A         61  45  56  N15G26  29.77S
$$

WAZ027-101210-
YAKIMA VALLEY

CITY            SKY/WX      TMP DP  RH  WIND    PRES   REMARKS
YAKIMA AIRPORT  CLEAR       71  40  32  N8      29.81S
YAKIMA-VAGABOND CLEAR       66  32  28  NE6     29.84R
#COWICHE 1N     N/A         66  39  37  W18     29.99R
#DONALD 2NE     N/A         70  23  17  W2      30.12S
#GRANDVIEW      N/A         63  47  56  CALM    29.76R
#MABTON         N/A         71  47  42  SW7     29.78S
#MOXEE 2E       N/A         70  13  11  W7      29.75R
#NACHES 2SW     N/A         66  43  43  W14G28  29.83S
#TERRACE HTS    N/A         70  34  26  N7      29.69S
#TOPPENISH      N/A         70  44  39  CALM    29.66S
#WAPATO 4NE     N/A         70  21  15  W5      30.12S
#W YAKIMA       N/A         70  42  36  N3      29.73S
#WHITE SWAN 5E  N/A         57  51  80  CALM    29.75R
#WILEY CITY 3W  N/A         54  26  34  CALM    29.81S
$$

WAZ028-101210-
LOWER COLUMBIA BASIN...WASHINGTON

CITY            SKY/WX      TMP DP  RH  WIND    PRES   REMARKS
PASCO           CLEAR       63  54  72  CALM    29.78S
PROSSER AWOS    N/A         64  46  52  SW8     29.82R
RICHLAND AWOS   CLEAR       70  52  53  CALM    29.78S
#BASIN CITY 5SW N/A         67  43  42  CALM    29.78S
#BENTON CITY    N/A         64  48  56  CALM    29.66R
#CONNELL 5N     N/A         61  48  62  SW2     29.73R
#CONNELL 5NW    N/A         59  49  69  CALM    29.70R
#ELTOPIA 6NW    N/A         72  41  33  CALM    28.78R
#KENNEWICK 3S   N/A         68  57  68  S5      29.74S
#PATERSON       N/A         67  57  70  CALM    29.75R
#PROSSER DOT    N/A         62  53  72  W7      N/A
#PROSSER        N/A         73  38  28  W5      29.73S
#SAGEMOOR 2W    N/A         69  53  57  CALM    29.60S
#TOUCHET 2S     N/A         74  51  44  SW16    29.72S
#WEST PASCO     N/A         68  49  51  CALM    29.76S
$$

WAZ029-101210-
FOOTHILLS OF THE BLUES...WASHINGTON

CITY            SKY/WX      TMP DP  RH  WIND    PRES   REMARKS
WALLA WALLA AP  CLEAR       71  48  44  S9      29.84S
#COLLEGE PLACE  N/A         72  49  44  S2      29.81R
#LOWDEN 2SE     N/A         64  54  70  E2      29.77R
#PLEASANT VIEW 1N/A         64  48  56  SW7     29.76R
#PRESCOTT       N/A         62  51  67  CALM    29.75R
#SUDBURY        N/A         57  N/A N/A E3      N/A
#WHITMAN COLLEGEN/A         72  51  48  SE3     29.81R
#WAITSBURG 8N   N/A         66  38  36  S7      29.71R
#WALLA WALLA 5E N/A         68  47  47  CALM    N/A
#WHITMAN MISSIONN/A         64  54  70  CALM    29.78R
$$

WAZ030-101210-
BLUE MOUNTAINS...WASHINGTON

CITY            SKY/WX      TMP DP  RH  WIND    PRES   REMARKS
$$

ORZ009-041-WAZ024-101210-
COLUMBIA RIVER GORGE

CITY            SKY/WX      TMP DP  RH  WIND    PRES   REMARKS
HOOD RIVER AP   CLEAR       63  52  67  NW10    29.87S
THE DALLES AP   CLEAR       66  54  65  N17     29.82F
#ARLINGTON AIRPON/A         67  51  56  W12     N/A
#ARLINGTON HS   N/A         70  51  51  N1      29.68S
#CELILO DOT     N/A         71  50  47  CALM    N/A
#MARYHILL       N/A         69  51  53  CALM    N/A
#MOSIER 1S      N/A         60  51  72  NW8     29.91S
#MURDOCK        N/A         67  58  73  W10     29.84S
#RUFUS DOT      N/A         72  51  48  W13     N/A

$$

ORZ510-101210-
NORTH CENTRAL OREGON

CITY            SKY/WX      TMP DP  RH  WIND    PRES   REMARKS
#CHENOWITH 1W   N/A         58  52  80  W24     N/A
#COW CYN RST AREN/A         63  N/A N/A SW7     N/A
#GRASS VALLEY 1SN/A         55  37  51  S1      29.79F
#KENT DOT       N/A         57  30  35  SW10    N/A
#MAUPIN SCHOOL  N/A         63  43  48  CALM    29.89S
#MORO SCHOOL    N/A         54  44  69  S1      29.88S
#SHANIKO 5WSW   N/A         61  29  30  S8      N/A
#SHANIKO 4NW    N/A         62  25  24  W8      29.95F
#TYGH VALLEY 2NEN/A         56  38  51  CALM    29.79S
#WAPANITIA AIRPON/A         64  40  41  W7      29.78F
#WASCO DOT      N/A         64  51  63  W6      N/A
#WASCO 5NE      N/A         62  49  62  SW7     29.77S
$$

ORZ511-101210-
CENTRAL OREGON

CITY            SKY/WX      TMP DP  RH  WIND    PRES   REMARKS
BEND AIRPORT    CLEAR       59  46  62  SW7     29.99R
MADRAS AIRPORT  CLEAR       55  37  51  SE5     29.94S
REDMOND AIRPORT CLEAR       53  43  69  S7      29.96R
#BEND 6E        N/A         57  41  55  CALM    29.72R
#BEND 1SW       N/A         59  47  64  SW1     N/A
#BEND-AWBREY    N/A         60  46  60  N6      29.76R
#BEND-KIM LN    N/A         58  48  69  S3      29.95S
#CULVER         N/A         56  41  57  CALM    29.90S
#LAKE BILLY CHINN/A         59  33  37  CALM    29.99S
#POWELL BUTTE   N/A         57  36  45  S1      29.62S
#PRINEVILLE 3N  N/A         54  34  47  CALM    29.75R


ORZ509-101210-
EAST SLOPES OF OREGON CASCADES

CITY            SKY/WX      TMP DP  RH  WIND    PRES   REMARKS
#BLUE BOX PASS  N/A         57   5  12  NW3     N/A
#BLACK BUTTE RNCN/A         53  47  80  CALM    29.75S
#CAMP SHERMAN   N/A         51  45  80  CALM    29.78S
#LA PINE DOT    N/A         48  43  83  CALM    N/A
#LA PINE 4NW    N/A         46  42  86  CALM    29.82R
#LAVA BUTTE DOT N/A         55  43  64  CALM    N/A
#SISTERS AIRPOR N/A         48  41  77  CALM    29.97S
#SISTERS ODOT   N/A         46  N/A N/A CALM    N/A
#SISTERS 3N     N/A         48  32  54  CALM    29.98S
#SUNRIVER       N/A         52  46  80  CALM    29.66R
#SUNRIVER AP    N/A         49  43  80  CALM    29.73R
#SUTTLE LK DOT  N/A         58  50  75  W9      N/A
#TUMALO 3W      N/A         61  36  39  W5      29.66S
#WANOGA BUTTE D N/A         63  11  13  CALM    N/A

$$

ORZ044-101210-
LOWER COLUMBIA BASIN...OREGON

CITY            SKY/WX      TMP DP  RH  WIND    PRES   REMARKS
HERMISTON       CLEAR       70  47  44  SW10    29.80R
#BOARDMAN 8SW   N/A         65  51  60  SW7     29.77R
#IONE SCHOOL    N/A         61  41  48  CALM    29.83S
#IRRIGON 4NW    N/A         66  53  63  S5      N/A
#UMATILLA SCHOOLN/A         65  60  84  CALM    29.87R
#UMATILLA       N/A         66  50  56  CALM    29.76S
$$

ORZ507-101210-
NORTHERN FOOTHILLS OF THE BLUES

CITY            SKY/WX      TMP DP  RH  WIND    PRES   REMARKS
PENDLETON AIRPT CLEAR       61  45  56  E7      29.85R
#ADAMS 3WNW     N/A         58  45  62  N1      29.75F
#ATHENA         N/A         59  49  69  CALM    29.78S
#HELIX SCHOOL   N/A         60  46  60  CALM    29.75S
#HELIX 3N       N/A         67  45  45  SW3     29.84S
#HELIX 6SW      N/A         62  45  54  CALM    29.85
#M-F FERNDALE   N/A         65  51  60  CALM    29.82R
#M-F GROVE ELEM N/A         70  46  42  CALM    29.83R
#M-FREEWATER 5SEN/A         65  49  56  E2      29.85R
#PDT AQUATIC CTRN/A         63  44  50  E2      29.86S
#PENDLETON DNTN N/A         63  42  46  CALM    29.80S
#PDT SUNRIDGE   N/A         55  44  66  CALM    29.85S
#PENDLETON 7NW  N/A         61  45  56  CALM    28.34S
#PILOT ROCK     N/A         64  37  37  SE6     29.88S
#TUTUILLA       N/A         57  48  72  CALM    29.73R
#WESTON SCHOOL  N/A         62  47  58  CALM    29.86S

$$

ORZ508-101210-
SOUTHERN FOOTHILLS OF THE BLUES

CITY            SKY/WX      TMP DP  RH  WIND    PRES   REMARKS
LEXINGTON       PTCLDY      63  36  36  E9      29.87F
#AJAX           N/A         N/A N/A N/A SW7     29.91S
#CONDON SCHOOL  N/A         61  35  38  CALM    29.89R
#FOSSIL SCHOOL  N/A         54  33  45  CALM    29.90S
#HEPPNER EOC    N/A         64  35  34  SE7     29.72S
#HEPPNER 4NE    N/A         65  34  31  CALM    29.74F
#LEXINGTON 2SE  N/A         62  39  43  SE7     29.82S
#MIKKALO        N/A         62  31  31  W5      29.86F
#OLEX 4N        N/A         65  42  43  W10     29.81F
#RUGGS 5NE      N/A         58  30  34  CALM    30.07S
#RUGGS 2SW      N/A         63  30  29  SW10    29.79S

$$

ORZ502-503-101210-
BLUE MOUNTAINS

CITY            SKY/WX      TMP DP  RH  WIND    PRES   REMARKS
MEACHAM         CLEAR       44  42  93  CALM    29.97S
#BATTLE MTN DOT N/A         56  45  66  CALM    N/A
#HARDMAN 10S    N/A         56  31  38  CALM    30.05S
#LADD CYN SMT   N/A         50  42  74  CALM    N/A
#LADD CREEK ODOTN/A         55  44  66  S3      N/A
#LONG CREEK HS  N/A         55  40  57  SW2     29.91S
#N POWDER DOT   N/A         51  51  100 W1      N/A
#TOLLGATE 9W    N/A         58  45  62  SE1     N/A
#TROY SCHOOL    N/A         58  48  69  CALM    29.63S
#UKIAH          N/A         44  41  89  CALM    29.83R
#WESTON 4E      N/A         63  45  52  SE1     29.68S
$$

ORZ505-101210-
JOHN DAY BASIN

CITY            SKY/WX      TMP DP  RH  WIND    PRES   REMARKS
JOHN DAY        PTCLDY      63  54  72  SE10    29.97S
#JOHN DAY KJDY  N/A         60  54  81  CALM    29.86R
#MONUMENT HS    N/A         58  43  57  CALM    29.67R
#MT. VERNON 5SE N/A         61  50  67  CALM    29.94S
#WINLOCK        N/A         58  29  33  CALM    30.02S
$$

ORZ506-101210-
OCHOCO AND JOHN DAY HIGHLANDS

CITY            SKY/WX      TMP DP  RH  WIND    PRES   REMARKS
#BUCK CREEK DOT N/A         64  47  54  NW2     N/A
#HORSE RIDGE DO N/A         40  37  89  CALM    N/A
#KEYES SMT DOT  N/A         55  29  37  S5      N/A
#PAULINA SCHOOL N/A         56  N/A N/A CALM    29.98S
#PINE MTN OBS   N/A         66  21  18  W1      N/A
#PRAIRIE CITY   N/A         50  48  93  CALM    29.98R
#SENECA 9NW     N/A         47  46  96  CALM    29.77S
$$

ORZ049-101210-
GRANDE RONDE VALLEY

CITY            SKY/WX      TMP DP  RH  WIND    PRES   REMARKS
LA GRANDE       CLEAR       54  37  52  SE3     29.90S
#COVE           N/A         55  49  80  CALM    29.84R
#COVE SCHOOL    N/A         54  47  77  CALM    29.91R
#COVE 6NW       N/A         52  46  80  CALM    29.80S
#ELGIN 3N       N/A         51  43  74  CALM    29.65S
#ELGIN 1E       N/A         52  46  80  CALM    N/A
#ISLAND CITY 4N N/A         52  46  80  CALM    29.72S
#LADD CYN DOT   N/A         60  38  44  SE15    N/A
#UNION 1S       N/A         54  49  83  CALM    29.67R
$$

ORZ050-101210-
WALLOWA COUNTY

CITY            SKY/WX      TMP DP  RH  WIND    PRES   REMARKS
#ENTERPRISE HS  N/A         52  46  80  CALM    29.97R
#IMNAHA SCHOOL  N/A         63  45  52  CALM    29.85R
#IMNAHA 10S     N/A         62  47  58  SW3     29.91S
#JOSEPH 3N      N/A         50  43  77  E2      29.99R
#LOSTINE        N/A         52  47  83  CALM    29.57S
#MT HOWARD 8000 N/A         58  36  44  CALM    30.22S
#PROMISE 1S     N/A         57  45  64  CALM    29.84F
#SHEEP RDG 7000 N/A         63  38  39  CALM    29.70S
#WALLOWA SCHOOL N/A         50  46  86  CALM    30.66R



$$



USA.gov is the U.S. government's official web portal to all federal, state and local government web resources and services.